Weather History for Prairie Du Chien, WI

Change the Weather History Date:

Sunday, March 31, 2013

  Actual Average Record
Temperature  
Mean Temperature 37 °F -  
Max Temperature 42 °F 54 °F 83 °F (1986)
Min Temperature 32 °F 31 °F 7 °F (1969)
Degree Days  
Heating Degree Days 28    
Moisture  
Dew Point 29 °F    
Average Humidity 76    
Maximum Humidity 97    
Minimum Humidity 49    
Precipitation  
Precipitation 0.00 in - - ()
Sea Level Pressure  
Sea Level Pressure 29.86 in    
Wind  
Wind Speed 6 mph (WNW)    
Max Wind Speed 23 mph    
Max Gust Speed 30 mph    
Visibility 7 miles    
Events Fog    
Averages and records for this station are not official NWS values.
T = Trace of Precipitation, MM = Missing Value Source: NWS Daily Summary

Daily Weather History Graph

Daily Weather History Graph

Search for Another Location

Airport:

Trip Planner

Search our weather history database for the weather conditions in past years. The results will help you decide how hot, cold, wet, or windy it might be!

Date:

Astronomy

Mar. 31, 2013 Rise Set
Actual Time 6:47 AM CDT 7:29 PM CDT
Civil Twilight 6:19 AM CDT 7:58 PM CDT
Nautical Twilight 5:45 AM CDT 8:32 PM CDT
Astronomical Twilight 5:10 AM CDT 9:07 PM CDT
Moon No Moon Rise 9:29 AM CDT (3/31)
Length of Visible Light 13h 39m
Length of Day
12h 42m
Waning Gibbous, 77% of the Moon is Illuminated
Mar 31
Waning Gibbous
Apr 2
Last Quarter
Apr 10
New
Apr 18
First Quarter
Apr 25
Full

Hourly Weather History & Observations

Time (CDT) Temp. Windchill Dew Point Humidity Pressure Visibility Wind Dir Wind Speed Gust Speed Precip Events Conditions
12:15 AM 38.1 °F - 36.7 °F 95% 29.86 in 1.2 mi Calm Calm - N/A   Scattered Clouds
12:35 AM 36.9 °F - 35.8 °F 96% 29.85 in 1.0 mi Calm Calm - N/A   Overcast
12:55 AM 36.9 °F - 35.8 °F 96% 29.85 in 2.0 mi Calm Calm - N/A   Overcast
1:15 AM 37.6 °F - 36.7 °F 97% 29.85 in 1.8 mi Calm Calm - N/A   Overcast
1:35 AM 36.9 °F - 36.0 °F 97% 29.84 in 1.0 mi Calm Calm - N/A   Overcast
1:55 AM 37.8 °F - 36.9 °F 97% 29.84 in 0.8 mi Calm Calm - N/A   Overcast
2:15 AM 37.6 °F - 36.7 °F 97% 29.84 in 0.5 mi Calm Calm - N/A Fog Fog
2:35 AM 37.6 °F - 36.7 °F 97% 29.84 in 0.2 mi Calm Calm - N/A Fog Fog
2:55 AM 37.4 °F 33.8 °F 36.5 °F 97% 29.84 in 1.8 mi West 4.6 mph - N/A   Overcast
3:15 AM 36.5 °F 31.8 °F 35.6 °F 97% 29.84 in 3.0 mi West 5.8 mph - N/A   Overcast
3:35 AM 35.8 °F 31.9 °F 34.9 °F 97% 29.84 in 4.0 mi West 4.6 mph - N/A   Overcast
3:55 AM 35.2 °F - 34.2 °F 96% 29.84 in 5.0 mi Calm Calm - N/A   Mostly Cloudy
4:15 AM 34.5 °F 31.6 °F 33.1 °F 94% 29.83 in 5.0 mi WNW 3.5 mph - N/A   Clear
4:35 AM 34.3 °F - 32.9 °F 94% 29.83 in 7.0 mi Calm Calm - N/A   Clear
4:55 AM 34.0 °F - 32.9 °F 96% 29.83 in 5.0 mi Calm Calm - N/A   Clear
5:15 AM 33.8 °F 30.8 °F 32.5 °F 95% 29.82 in 4.0 mi WNW 3.5 mph - N/A   Clear
5:35 AM 32.5 °F 27.1 °F 31.6 °F 96% 29.82 in 7.0 mi West 5.8 mph - N/A   Clear
5:55 AM 33.3 °F 28.9 °F 31.3 °F 92% 29.82 in 10.0 mi West 4.6 mph - N/A   Clear
6:15 AM 32.9 °F 29.8 °F 30.9 °F 92% 29.82 in 10.0 mi West 3.5 mph - N/A   Clear
6:35 AM 32.5 °F - 30.6 °F 92% 29.81 in 10.0 mi Calm Calm - N/A   Clear
6:55 AM 32.4 °F - 30.4 °F 92% 29.82 in 7.0 mi Calm Calm - N/A   Clear
7:15 AM 32.5 °F - 30.4 °F 92% 29.81 in 7.0 mi Calm Calm - N/A   Clear
7:35 AM 33.1 °F - 30.7 °F 91% 29.81 in 7.0 mi Calm Calm - N/A   Clear
8:35 AM 32.9 °F 25.3 °F 31.6 °F 95% 29.83 in 4.0 mi West 9.2 mph - N/A   Overcast
8:55 AM 33.3 °F 25.7 °F 32.0 °F 95% 29.82 in 4.0 mi West 9.2 mph - N/A   Overcast
9:15 AM 34.0 °F 26.6 °F 32.0 °F 92% 29.82 in 5.0 mi West 9.2 mph 16.1 mph N/A   Overcast
9:55 AM 35.1 °F 27.9 °F 32.0 °F 89% 29.82 in 5.0 mi West 9.2 mph - N/A   Overcast
10:15 AM 35.2 °F 27.6 °F 32.0 °F 88% 29.82 in 5.0 mi West 10.4 mph - N/A   Overcast
10:35 AM 35.6 °F 29.2 °F 32.0 °F 87% 29.82 in 5.0 mi West 8.1 mph - N/A   Overcast
10:55 AM 36.0 °F 28.0 °F 32.0 °F 86% 29.82 in 5.0 mi West 11.5 mph 18.4 mph N/A   Overcast
11:15 AM 36.7 °F 27.2 °F 32.0 °F 83% 29.82 in 5.0 mi WNW 16.1 mph 19.6 mph N/A   Haze
11:35 AM 37.4 °F 29.8 °F 32.2 °F 81% 29.82 in 5.0 mi West 11.5 mph - N/A   Haze
11:55 AM 37.6 °F 28.8 °F 32.5 °F 82% 29.83 in 5.0 mi West 15.0 mph - N/A   Haze
12:15 PM 38.5 °F 29.2 °F 32.0 °F 78% 29.83 in 7.0 mi West 17.3 mph 23.0 mph N/A   Overcast
12:35 PM 39.7 °F 33.7 °F 32.2 °F 74% 29.83 in 7.0 mi West 9.2 mph - N/A   Overcast
12:55 PM 40.1 °F 30.2 °F 31.1 °F 70% 29.83 in 10.0 mi West 21.9 mph 28.8 mph N/A   Overcast
1:15 PM 40.3 °F 30.7 °F 30.6 °F 68% 29.83 in 10.0 mi WNW 20.7 mph 28.8 mph N/A   Overcast
1:35 PM 39.9 °F 30.2 °F 30.4 °F 69% 29.84 in 10.0 mi West 20.7 mph 26.5 mph N/A   Overcast
1:55 PM 38.1 °F 28.4 °F 30.9 °F 75% 29.84 in 10.0 mi West 18.4 mph 25.3 mph N/A   Overcast
2:15 PM 38.5 °F 29.2 °F 30.6 °F 73% 29.84 in 10.0 mi West 17.3 mph 25.3 mph N/A   Overcast
2:35 PM 39.2 °F 31.2 °F 30.9 °F 72% 29.84 in 10.0 mi West 13.8 mph 21.9 mph N/A   Overcast
2:55 PM 39.7 °F 30.9 °F 30.6 °F 70% 29.84 in 10.0 mi WNW 17.3 mph 25.3 mph N/A   Overcast
3:15 PM 39.7 °F 32.7 °F 29.7 °F 67% 29.83 in 10.0 mi WNW 11.5 mph 23.0 mph N/A   Overcast
3:35 PM 42.1 °F 33.3 °F 29.8 °F 62% 29.83 in 10.0 mi West 19.6 mph 25.3 mph N/A   Mostly Cloudy
3:55 PM 41.9 °F 33.1 °F 28.0 °F 58% 29.83 in 10.0 mi West 19.6 mph 27.6 mph N/A   Mostly Cloudy
4:15 PM 42.1 °F 33.9 °F 28.0 °F 58% 29.84 in 10.0 mi WNW 17.3 mph 27.6 mph N/A   Mostly Cloudy
4:35 PM 41.0 °F 32.2 °F 26.1 °F 55% 29.84 in 10.0 mi WNW 18.4 mph 28.8 mph N/A   Mostly Cloudy
4:55 PM 41.7 °F 32.1 °F 27.1 °F 56% 29.84 in 10.0 mi WNW 23.0 mph 26.5 mph N/A   Mostly Cloudy
5:15 PM 41.5 °F 33.2 °F 25.3 °F 53% 29.85 in 10.0 mi WNW 17.3 mph 24.2 mph N/A   Mostly Cloudy
5:35 PM 41.0 °F 32.8 °F 25.5 °F 54% 29.85 in 10.0 mi WNW 16.1 mph 24.2 mph N/A   Mostly Cloudy
5:55 PM 40.3 °F 31.9 °F 24.6 °F 54% 29.86 in 10.0 mi WNW 16.1 mph 21.9 mph N/A   Scattered Clouds
6:15 PM 40.3 °F 32.6 °F 23.0 °F 50% 29.86 in 10.0 mi West 13.8 mph 29.9 mph N/A   Scattered Clouds
6:35 PM 39.6 °F 30.6 °F 22.6 °F 51% 29.86 in 10.0 mi WNW 17.3 mph 24.2 mph N/A   Scattered Clouds
6:55 PM 39.2 °F 29.6 °F 21.4 °F 49% 29.87 in 10.0 mi West 19.6 mph 26.5 mph N/A   Scattered Clouds
7:15 PM 37.9 °F 30.5 °F 22.5 °F 54% 29.89 in 10.0 mi WNW 11.5 mph 17.3 mph N/A   Scattered Clouds
7:35 PM 37.4 °F 28.2 °F 21.9 °F 54% 29.90 in 10.0 mi WNW 16.1 mph - N/A   Mostly Cloudy
7:55 PM 36.3 °F 29.5 °F 22.5 °F 57% 29.90 in 10.0 mi WNW 9.2 mph - N/A   Scattered Clouds
8:15 PM 35.6 °F 28.6 °F 22.1 °F 58% 29.91 in 10.0 mi WNW 9.2 mph - N/A   Scattered Clouds
8:35 PM 35.1 °F 28.6 °F 23.0 °F 61% 29.92 in 10.0 mi WNW 8.1 mph - N/A   Clear
8:55 PM 34.7 °F 28.8 °F 21.9 °F 60% 29.93 in 10.0 mi WNW 6.9 mph - N/A   Clear
9:15 PM 34.3 °F 27.0 °F 21.4 °F 59% 29.94 in 10.0 mi WNW 9.2 mph - N/A   Clear
9:35 PM 34.3 °F 25.9 °F 21.9 °F 60% 29.95 in 10.0 mi WNW 11.5 mph - N/A   Clear
9:55 PM 33.8 °F 25.8 °F 21.9 °F 62% 29.96 in 10.0 mi WNW 10.4 mph - N/A   Clear
10:15 PM 33.3 °F 24.6 °F 21.2 °F 61% 29.97 in 10.0 mi WNW 11.5 mph 17.3 mph N/A   Clear
10:35 PM 32.9 °F 24.7 °F 21.0 °F 62% 29.97 in 10.0 mi WNW 10.4 mph - N/A   Clear
10:55 PM 32.9 °F 24.7 °F 19.9 °F 59% 29.98 in 10.0 mi WNW 10.4 mph 18.4 mph N/A   Clear
11:15 PM 32.2 °F 23.8 °F 20.7 °F 63% 29.99 in 10.0 mi WNW 10.4 mph - N/A   Clear
11:35 PM 32.0 °F 23.0 °F 20.8 °F 63% 29.99 in 10.0 mi WNW 11.5 mph - N/A   Clear
11:55 PM 32.0 °F 21.2 °F 20.3 °F 62% 29.99 in 10.0 mi WNW 16.1 mph 21.9 mph N/A   Clear